Temperature
1 1 2 2 2 3 3 3 3 3 4 4 4 4 4 4 4 4 5 5 5 5 5 5 5 5 5 5 5 5 5 5 5 5 5 5 5 5 6 6 6 6 6
-0 0 1 1 2 2 2 3 3 3 3 3 4 4 4 4 4 4 4 4 4 4 5 5 5 5 5 5 5 5 5 5 5 5 5 5 5 5 5 5 5 5 5
-1 -1 0 0 1 1 1 2 2 2 2 3 3 3 3 3 3 4 4 4 4 4 4 4 5 4 4 4 4 4 4 4 4 4 4 4 4 4 4 4 5 5 5
-2 -1 -1 -0 0 0 1 1 1 1 2 2 2 2 3 3 3 3 3 3 3 3 3 3 4 4 4 4 4 4 4 4 3 3 4 4 4 4 4 4 4 4 4
-3 -2 -2 -1 -1 -0 0 0 0 1 1 1 1 2 2 2 2 2 2 2 3 3 3 3 3 3 3 3 3 3 3 3 3 3 3 3 3 3 3 3 3 3 3
-3 -3 -2 -2 -1 -1 -1 -0 -0 -0 0 0 1 1 1 1 2 2 2 2 2 2 2 2 2 2 3 2 2 2 2 3 3 2 2 2 3 3 3 2 2 2 2
-4 -4 -3 -3 -2 -1 -1 -1 -1 -1 -0 -0 -0 0 1 1 1 1 1 1 1 2 2 2 2 2 2 2 2 2 2 2 2 2 2 2 2 2 2 2 2 2 2
-4 -4 -4 -3 -3 -2 -2 -2 -1 -1 -1 -1 -1 -0 0 0 0 1 1 1 1 1 1 2 2 2 1 1 2 2 2 2 2 2 2 2 2 2 2 2 1 1 1
-5 -4 -4 -4 -4 -3 -3 -2 -2 -2 -2 -1 -1 -1 -0 -0 -0 0 0 0 1 1 1 1 1 1 1 1 1 1 1 2 2 1 1 1 1 1 1 1 1 1 1
-5 -5 -5 -4 -4 -4 -3 -3 -3 -3 -2 -2 -2 -1 -1 -1 -1 -0 -0 -0 0 0 0 0 0 0 0 0 0 1 1 1 1 1 1 1 1 1 1 1 1 0 0
-6 -5 -5 -5 -5 -4 -4 -3 -3 -3 -3 -3 -2 -2 -2 -1 -1 -1 -1 -1 -1 -1 -0 -0 -0 -0 -0 -0 -0 0 0 0 0 0 0 0 0 0 0 0 0 -0 -0
-6 -6 -6 -5 -5 -5 -4 -4 -4 -4 -4 -3 -3 -2 -2 -2 -2 -2 -2 -1 -1 -1 -1 -1 -1 -1 -1 -0 -0 -0 -0 -0 -0 -0 -0 -0 -0 -0 -1 -1 -1 -1 -1
-6 -6 -6 -6 -6 -5 -5 -5 -4 -4 -4 -4 -4 -3 -3 -3 -2 -2 -2 -2 -2 -2 -1 -1 -1 -1 -1 -1 -1 -1 -1 -1 -1 -1 -1 -1 -1 -1 -1 -1 -1 -1 -1
-7 -7 -7 -6 -6 -6 -5 -5 -5 -5 -5 -5 -4 -4 -4 -3 -3 -3 -3 -2 -2 -2 -2 -2 -2 -2 -2 -1 -1 -1 -1 -2 -2 -2 -2 -2 -2 -2 -2 -2 -2 -2 -2
-8 -7 -7 -7 -7 -6 -6 -6 -6 -5 -5 -5 -5 -4 -4 -4 -3 -3 -3 -3 -3 -3 -3 -3 -2 -2 -2 -2 -2 -2 -2 -2 -2 -2 -2 -2 -2 -2 -2 -2 -2 -2 -2
-9 -8 -8 -8 -7 -7 -7 -6 -6 -6 -5 -5 -5 -5 -5 -4 -4 -4 -4 -4 -4 -3 -3 -3 -3 -3 -3 -3 -3 -3 -3 -3 -3 -3 -3 -3 -3 -3 -3 -3 -3 -3 -3
-9 -9 -9 -8 -8 -8 -7 -7 -6 -6 -6 -6 -6 -5 -5 -5 -4 -4 -4 -4 -4 -4 -4 -4 -4 -4 -4 -3 -3 -3 -3 -3 -3 -3 -3 -3 -3 -3 -3 -3 -3 -3 -4
-9 -9 -9 -9 -9 -8 -8 -8 -7 -7 -7 -6 -6 -6 -6 -5 -5 -5 -5 -5 -5 -5 -5 -5 -4 -4 -4 -4 -4 -4 -4 -4 -4 -4 -4 -4 -4 -4 -4 -4 -4 -4 -4
-9 -9 -9 -9 -9 -9 -8 -8 -8 -7 -7 -7 -7 -6 -6 -6 -6 -6 -5 -5 -5 -5 -5 -5 -5 -5 -5 -4 -4 -4 -4 -4 -4 -4 -4 -4 -4 -4 -4 -4 -4 -4 -4
-10 -9 -10 -10 -10 -9 -9 -9 -8 -8 -8 -8 -7 -7 -7 -7 -6 -6 -6 -6 -6 -6 -6 -5 -5 -5 -5 -5 -5 -5 -5 -5 -5 -5 -5 -5 -5 -5 -5 -5 -5 -5 -5
-10 -10 -10 -10 -10 -10 -9 -9 -9 -9 -8 -8 -8 -8 -8 -7 -7 -7 -7 -7 -6 -6 -6 -6 -6 -6 -6 -6 -6 -5 -5 -5 -5 -5 -5 -5 -5 -5 -5 -5 -5 -5 -6
-11 -10 -10 -10 -10 -10 -10 -10 -9 -9 -9 -9 -9 -8 -8 -8 -8 -8 -7 -7 -7 -7 -7 -7 -7 -6 -6 -6 -6 -6 -6 -6 -6 -6 -6 -6 -6 -6 -6 -6 -6 -6 -6
-11 -11 -11 -11 -11 -10 -10 -10 -10 -10 -9 -9 -9 -9 -9 -8 -8 -8 -8 -8 -7 -7 -7 -7 -7 -7 -7 -7 -7 -7 -7 -6 -6 -6 -6 -6 -6 -6 -6 -6 -6 -6 -6
-11 -11 -11 -11 -11 -11 -11 -11 -10 -10 -10 -10 -9 -9 -9 -9 -8 -8 -8 -8 -8 -8 -8 -8 -8 -7 -7 -7 -7 -7 -7 -7 -7 -7 -7 -6 -7 -7 -7 -7 -7 -7 -7
-12 -12 -12 -12 -11 -11 -11 -11 -11 -10 -10 -10 -10 -9 -9 -9 -9 -9 -9 -9 -8 -8 -8 -8 -8 -8 -8 -8 -8 -8 -7 -7 -7 -7 -7 -7 -7 -7 -7 -7 -7 -7 -7
-12 -12 -12 -12 -12 -12 -12 -11 -11 -11 -11 -10 -10 -10 -10 -10 -9 -9 -9 -9 -9 -9 -9 -8 -8 -8 -8 -8 -8 -8 -8 -8 -8 -7 -7 -7 -7 -7 -7 -7 -8 -8 -8
Wind_Speed
9 8 8 7 6 4 3 3 3 3 3 3 4 4 4 4 4 4 4 4 4 3 3 4 4 3 3 2 2 2 2 3 4 3 2 2 3 3 3 4 5 5 5
9 8 7 7 6 5 4 4 4 3 3 3 3 3 4 4 4 5 5 4 4 4 4 3 4 3 3 3 3 3 3 3 3 4 3 2 3 3 3 3 3 4 5
9 8 8 7 7 6 5 4 3 3 3 2 2 3 4 4 4 4 4 4 4 4 4 4 4 4 4 3 4 4 3 3 3 3 3 2 2 2 2 2 2 3 4
9 8 8 7 7 7 5 4 3 3 2 2 2 3 3 3 4 4 4 4 4 4 4 4 4 5 5 5 4 4 4 3 3 3 3 3 2 2 2 2 2 2 2
9 8 8 8 7 7 5 4 4 4 3 2 2 2 2 2 3 4 4 4 4 4 4 4 4 5 5 5 4 4 4 4 4 4 4 3 3 2 3 2 3 2 2
8 7 8 8 7 7 6 4 4 4 3 3 3 3 3 2 3 3 3 4 4 4 4 4 3 4 5 6 5 5 6 6 5 5 4 5 5 4 2 3 2 2 3
8 7 7 8 7 7 6 4 4 4 4 3 3 3 2 3 3 2 2 2 3 4 4 3 3 3 4 4 5 5 6 7 7 6 6 7 6 6 5 4 4 4 4
9 8 8 8 8 7 5 5 4 4 4 3 3 3 3 3 4 3 2 2 3 3 4 4 4 4 4 4 3 3 4 4 6 5 6 6 5 5 6 5 4 2 1
10 9 8 7 7 7 6 5 4 4 4 3 3 3 3 4 4 4 2 2 2 2 2 2 3 3 5 4 4 4 4 3 4 6 6 6 6 6 5 3 3 3 2
10 9 8 7 7 7 6 5 4 3 4 3 3 3 3 4 4 4 3 2 2 2 2 2 3 3 4 4 4 4 5 4 2 1 2 2 3 4 5 5 5 4 2
10 9 8 7 7 6 6 4 4 4 3 3 3 3 3 4 4 5 4 2 2 2 2 2 2 3 3 3 3 3 5 3 3 3 2 1 1 2 2 2 3 3 3
9 9 8 8 6 6 5 5 4 3 3 3 3 4 3 3 4 4 5 3 2 2 3 2 2 3 3 3 2 2 2 2 2 2 2 2 1 1 1 1 1 1 1
9 8 8 8 6 6 5 5 4 3 3 3 3 3 3 2 3 4 4 4 3 2 2 2 2 3 2 2 2 2 1 2 2 2 2 2 1 1 2 2 2 3 3
9 8 7 6 6 5 4 4 3 3 3 3 3 3 3 3 2 2 2 2 2 2 1 1 2 1 1 0 1 1 1 2 2 2 2 1 1 2 1 1 1 1 1
8 7 7 6 5 5 5 4 4 4 4 4 3 3 3 3 4 4 2 2 2 2 1 0 0 0 0 0 0 0 1 1 1 1 2 2 2 1 1 1 1 1 1
8 7 6 5 5 4 5 5 7 6 7 7 5 4 4 4 4 4 3 3 3 3 1 1 1 1 1 1 1 0 0 1 1 2 2 2 2 2 1 1 1 1 1
8 7 6 5 5 5 5 4 5 6 7 6 6 5 4 4 3 3 2 1 2 2 1 1 1 2 2 2 2 1 1 1 1 2 2 2 2 2 2 1 1 1 1
7 7 7 5 5 5 5 4 4 4 4 4 5 5 4 4 3 2 2 2 1 0 0 1 1 1 1 1 1 1 1 1 1 2 2 2 2 2 2 2 2 2 1
7 5 5 5 4 4 4 4 4 4 3 3 4 4 5 4 4 3 2 1 0 0 0 0 1 1 1 1 1 1 1 1 1 1 2 2 2 2 2 2 2 3 2
6 8 7 5 4 4 4 4 4 3 3 3 3 4 4 4 3 3 3 2 1 1 1 0 0 0 0 1 1 1 1 1 1 1 2 2 2 2 3 3 3 3 2
6 6 8 6 4 4 4 4 3 3 3 3 3 4 5 2 2 2 2 2 1 1 1 1 0 0 0 0 1 1 1 1 1 2 2 2 2 2 2 2 3 3 2
5 5 5 4 4 4 4 3 3 3 3 3 3 4 5 3 2 2 2 2 2 2 1 1 0 0 0 0 1 1 1 1 1 2 2 2 2 2 2 2 2 2 2
5 5 5 5 5 6 5 4 3 3 3 3 3 3 3 3 3 3 3 2 2 2 2 1 1 1 1 1 1 1 2 2 2 2 2 2 2 2 2 2 3 2 2
5 5 5 5 5 4 4 4 4 3 3 3 3 3 3 3 3 3 3 2 2 2 2 2 1 1 2 2 1 1 2 2 2 3 4 3 3 2 2 3 3 3 3
5 5 5 4 5 4 4 4 4 4 3 3 3 3 3 3 3 3 3 2 2 2 2 2 2 2 2 2 2 2 2 2 2 2 3 3 3 3 3 3 3 3 2
5 5 5 4 4 4 4 4 4 4 4 3 3 2 2 2 2 2 2 2 2 2 2 2 3 3 3 3 3 2 2 2 2 2 2 3 3 3 3 3 3 3 3
Wind_Direction
332 330 332 332 328 324 318 312 303 277 251 240 225 208 206 208 205 201 202 197 199 215 222 207 209 204 199 200 194 196 203 200 232 250 231 233 221 228 249 243 243 244 246
328 329 331 328 330 327 321 312 311 292 278 251 230 220 215 213 208 201 201 201 200 207 218 213 211 204 203 203 199 206 213 210 215 239 250 234 236 229 226 228 243 251 251
330 331 332 331 331 322 309 307 309 295 284 278 245 234 225 219 213 207 202 201 204 208 214 216 212 200 212 212 210 214 215 217 209 219 243 244 241 227 221 243 251 262 265
330 327 326 325 322 314 302 300 302 301 289 284 274 256 244 227 215 206 204 203 214 220 219 219 214 205 211 211 214 214 209 207 205 210 225 234 236 227 201 225 261 261 272
327 324 320 318 318 320 312 308 308 309 295 278 270 268 262 239 220 206 200 207 216 224 227 227 229 225 217 214 216 209 203 207 207 213 221 229 226 209 220 217 238 258 278
320 319 320 322 321 322 319 319 316 311 294 285 274 265 264 258 256 242 220 206 216 222 228 229 233 233 225 227 229 222 211 209 209 215 224 224 224 217 214 220 222 239 265
320 320 322 324 321 319 317 319 316 315 316 304 294 282 270 266 275 264 251 216 212 220 223 225 238 245 247 225 232 238 238 236 228 220 219 224 218 209 200 215 222 229 244
324 321 322 323 317 314 315 312 313 316 311 297 295 289 284 286 290 281 269 245 231 224 220 219 224 234 233 221 213 224 233 237 237 230 227 229 224 208 205 212 213 220 260
322 320 317 317 313 311 310 304 308 311 310 299 290 290 283 283 286 282 270 232 229 235 238 234 224 227 237 231 219 220 234 248 255 246 241 233 229 221 198 169 177 189 237
319 315 313 314 310 304 299 295 300 299 298 300 294 285 277 273 284 284 270 220 223 237 246 252 254 249 249 238 221 212 225 233 212 237 234 220 210 205 203 196 192 197 213
315 315 315 314 307 302 303 295 294 294 297 298 294 290 279 277 282 282 279 233 212 220 232 245 255 260 258 249 239 224 228 217 196 193 185 172 158 173 183 194 191 196 206
317 316 315 314 309 309 308 307 298 282 280 285 285 291 283 276 280 276 276 276 262 215 227 237 249 256 262 259 245 240 234 206 179 175 180 195 191 189 161 144 131 137 208
321 316 315 314 311 310 306 303 303 291 276 273 269 275 282 278 275 278 270 277 282 262 240 249 261 268 265 255 243 230 212 187 170 174 192 206 190 161 127 105 84 75 55
319 318 316 314 313 310 304 298 292 286 283 279 276 273 273 268 263 258 252 263 273 277 266 268 279 270 268 265 236 214 178 179 172 181 182 168 122 118 120 118 112 98 65
318 317 318 314 309 309 308 296 286 274 276 281 274 272 268 265 273 278 267 253 243 240 223 201 355 22 131 49 75 119 144 152 165 153 154 148 140 133 126 105 112 114 147
317 319 317 316 312 310 310 315 311 304 303 298 298 296 287 291 293 278 274 269 257 231 223 207 222 213 213 217 217 206 157 180 182 165 159 162 168 168 159 131 125 141 168
310 313 313 315 316 315 315 315 320 327 326 317 311 311 310 318 316 310 309 309 267 229 229 206 220 221 219 214 213 212 220 215 178 167 168 170 171 171 168 171 163 149 173
308 310 313 310 313 315 314 310 309 315 326 334 331 332 333 330 338 348 0 9 321 325 260 217 226 227 226 225 224 223 204 186 175 173 171 172 176 177 179 184 184 184 198
314 313 312 313 315 315 315 315 314 314 320 328 338 340 345 348 356 4 10 10 27 335 325 300 265 231 238 234 227 215 199 198 196 178 178 178 181 179 188 192 189 190 199
318 319 322 319 317 317 318 318 319 322 326 332 335 334 339 351 4 1 1 6 11 331 308 283 280 240 220 223 215 193 174 179 194 186 185 186 188 189 191 192 194 197 206
319 320 323 321 316 313 311 310 312 315 316 320 323 326 336 348 344 339 338 349 354 341 330 335 334 283 238 189 189 181 185 201 210 198 189 188 187 192 197 198 200 199 195
328 328 329 324 320 316 315 315 315 315 316 317 326 330 337 346 342 339 337 342 349 349 351 356 356 340 302 236 208 193 199 214 221 208 195 191 190 191 192 195 197 194 189
333 332 333 330 326 325 327 325 320 317 316 316 317 325 332 337 337 336 335 336 345 351 352 355 4 343 320 303 251 219 218 228 231 217 194 194 194 191 188 192 194 189 197
332 332 331 333 336 335 331 328 324 319 316 316 319 322 325 327 328 330 331 334 342 345 341 337 323 299 298 306 302 273 236 224 216 209 196 192 195 193 186 188 196 198 201
338 335 335 336 334 332 331 331 330 327 322 319 321 322 324 325 328 330 330 333 337 336 332 326 311 299 287 288 286 277 261 252 242 213 195 186 183 185 186 187 192 196 202
339 336 334 333 331 329 329 329 330 332 330 324 320 319 319 318 318 319 319 322 324 325 327 324 313 303 294 290 284 277 269 261 252 224 190 171 177 186 186 190 190 195 193
Height
1479 1477 1475 1474 1473 1473 1472 1473 1473 1473 1474 1475 1476 1477 1479 1481 1482 1483 1485 1486 1488 1489 1491 1492 1493 1495 1497 1498 1499 1501 1502 1503 1503 1503 1504 1506 1506 1507 1508 1508 1509 1509 1509
1477 1474 1472 1471 1470 1469 1469 1469 1469 1470 1470 1471 1472 1473 1474 1476 1478 1479 1480 1482 1483 1484 1486 1487 1489 1491 1492 1493 1494 1495 1497 1498 1498 1498 1499 1500 1501 1502 1503 1503 1504 1504 1505
1474 1472 1470 1468 1467 1466 1465 1465 1465 1466 1466 1467 1468 1468 1470 1472 1473 1474 1476 1477 1479 1480 1481 1482 1484 1486 1487 1488 1489 1490 1491 1492 1493 1493 1494 1495 1496 1497 1497 1498 1499 1499 1500
1472 1469 1467 1466 1464 1463 1462 1462 1462 1462 1462 1462 1463 1464 1466 1467 1468 1470 1471 1473 1474 1475 1477 1478 1479 1481 1482 1483 1484 1485 1486 1487 1488 1489 1489 1490 1491 1492 1492 1493 1493 1494 1495
1470 1467 1465 1463 1462 1460 1459 1459 1458 1458 1458 1458 1459 1460 1461 1462 1464 1465 1467 1468 1469 1471 1472 1473 1475 1476 1477 1478 1479 1480 1481 1482 1483 1483 1484 1485 1486 1487 1488 1488 1489 1489 1489
1467 1465 1463 1461 1459 1458 1457 1455 1455 1455 1455 1455 1456 1456 1457 1458 1460 1462 1463 1464 1465 1466 1467 1468 1470 1471 1472 1473 1474 1475 1476 1477 1478 1479 1479 1480 1480 1482 1483 1484 1484 1484 1484
1465 1462 1460 1458 1456 1455 1455 1453 1452 1452 1451 1452 1452 1453 1454 1455 1456 1458 1459 1460 1461 1462 1463 1464 1464 1466 1467 1468 1469 1470 1471 1472 1473 1474 1474 1475 1476 1477 1478 1478 1479 1479 1479
1462 1460 1458 1456 1454 1453 1452 1451 1450 1449 1449 1449 1450 1450 1451 1452 1453 1454 1455 1456 1457 1458 1459 1459 1460 1461 1462 1463 1464 1465 1466 1467 1468 1469 1469 1470 1471 1472 1473 1474 1474 1474 1475
1460 1457 1455 1454 1452 1451 1449 1448 1447 1447 1447 1447 1447 1447 1448 1449 1450 1450 1451 1452 1453 1454 1454 1455 1456 1457 1458 1459 1460 1460 1461 1462 1463 1463 1464 1465 1466 1467 1468 1468 1469 1469 1469
1457 1455 1453 1451 1449 1448 1446 1446 1445 1445 1444 1444 1444 1445 1445 1445 1446 1447 1448 1448 1449 1450 1450 1451 1452 1453 1454 1454 1455 1456 1456 1457 1458 1458 1459 1459 1460 1461 1463 1463 1464 1464 1465
1455 1452 1450 1448 1446 1445 1444 1443 1442 1442 1441 1441 1441 1441 1442 1442 1443 1444 1444 1445 1445 1446 1447 1447 1448 1449 1450 1450 1451 1451 1452 1452 1453 1453 1454 1454 1455 1456 1457 1458 1459 1460 1461
1452 1449 1447 1445 1443 1442 1441 1440 1439 1439 1438 1438 1437 1438 1438 1439 1439 1440 1441 1441 1442 1443 1443 1444 1444 1445 1446 1446 1447 1447 1448 1448 1448 1449 1449 1450 1451 1452 1453 1454 1455 1456 1457
1449 1446 1444 1442 1440 1439 1438 1436 1436 1435 1435 1434 1434 1434 1434 1435 1436 1436 1437 1438 1438 1439 1439 1440 1441 1441 1442 1442 1442 1443 1444 1444 1444 1445 1445 1447 1448 1449 1450 1451 1451 1452 1453
1446 1443 1441 1439 1437 1436 1435 1434 1433 1432 1432 1431 1431 1431 1431 1431 1432 1432 1433 1434 1434 1435 1435 1436 1437 1437 1438 1438 1438 1439 1440 1440 1441 1441 1442 1444 1445 1445 1446 1447 1448 1448 1449
1443 1440 1438 1436 1434 1433 1431 1430 1430 1429 1430 1429 1428 1428 1428 1428 1428 1429 1429 1429 1430 1431 1432 1432 1432 1433 1433 1434 1434 1435 1436 1437 1438 1438 1439 1440 1441 1442 1443 1444 1445 1445 1446
1440 1437 1435 1433 1432 1430 1428 1427 1427 1427 1426 1426 1426 1426 1425 1426 1426 1426 1426 1426 1427 1427 1428 1428 1428 1429 1429 1430 1431 1432 1433 1434 1435 1435 1436 1437 1438 1439 1440 1441 1442 1442 1443
1438 1435 1433 1431 1429 1427 1426 1425 1423 1423 1423 1423 1422 1422 1422 1422 1422 1422 1422 1422 1423 1423 1424 1424 1425 1425 1426 1427 1428 1428 1429 1430 1432 1433 1433 1434 1435 1436 1437 1438 1438 1439 1440
1436 1433 1431 1429 1427 1425 1424 1423 1422 1421 1420 1419 1419 1419 1419 1419 1418 1418 1419 1419 1419 1419 1420 1421 1421 1422 1423 1424 1425 1425 1426 1427 1428 1429 1430 1431 1432 1433 1434 1435 1435 1436 1437
1433 1430 1428 1427 1425 1424 1422 1421 1421 1420 1419 1418 1417 1417 1417 1416 1416 1416 1416 1416 1415 1416 1417 1418 1419 1420 1420 1421 1422 1423 1423 1424 1425 1426 1427 1428 1429 1430 1431 1431 1432 1433 1434
1431 1428 1426 1425 1423 1422 1421 1420 1419 1418 1417 1416 1415 1415 1414 1414 1413 1413 1413 1413 1413 1414 1415 1415 1416 1417 1418 1418 1419 1420 1420 1421 1422 1423 1424 1425 1426 1427 1428 1428 1429 1430 1430
1428 1426 1425 1423 1421 1420 1419 1418 1417 1416 1416 1415 1414 1414 1413 1413 1412 1412 1412 1412 1412 1412 1413 1413 1414 1414 1415 1416 1416 1417 1417 1418 1419 1420 1421 1422 1423 1423 1424 1425 1426 1426 1427
1427 1424 1423 1421 1419 1418 1417 1416 1415 1414 1414 1413 1412 1412 1412 1411 1411 1410 1410 1410 1411 1411 1411 1412 1412 1412 1413 1414 1414 1414 1415 1415 1416 1417 1417 1418 1419 1420 1421 1422 1422 1423 1424
1426 1424 1421 1419 1418 1416 1415 1414 1413 1413 1412 1411 1411 1410 1410 1409 1409 1409 1409 1409 1409 1409 1410 1410 1410 1410 1411 1411 1412 1412 1412 1412 1413 1414 1415 1415 1416 1417 1418 1419 1419 1420 1421
1425 1422 1420 1418 1416 1415 1414 1413 1412 1411 1410 1409 1409 1408 1408 1408 1407 1407 1408 1408 1407 1408 1408 1408 1408 1408 1409 1409 1409 1410 1410 1410 1411 1411 1412 1413 1413 1414 1415 1416 1416 1417 1418
1424 1421 1419 1417 1415 1414 1412 1411 1410 1409 1408 1408 1407 1407 1407 1406 1406 1406 1406 1406 1406 1406 1406 1406 1406 1406 1406 1407 1407 1407 1408 1408 1408 1409 1409 1410 1410 1411 1412 1413 1413 1414 1415
1422 1420 1418 1416 1414 1412 1410 1409 1408 1407 1406 1406 1405 1405 1405 1404 1404 1404 1404 1403 1403 1403 1403 1404 1404 1404 1404 1405 1405 1405 1405 1406 1406 1406 1407 1407 1408 1408 1409 1410 1411 1411 1412